Regional Weather Roundup
Issued by NWS

Home | Current Version | Previous Version | Graphics & Text | Print | Product List | Glossary On
Versions: 1 2 3 4 5 6 7 8 9 10 11 12 13 14 15 16 17 18 19 20 21 22 23 24 25 26 27 28 29 30 31 32 33 34 35 36 37 38 39 40 41 42 43 44 45 46 47 48 49 50
000
ASUS43 KLMK 231210
RWRKY
KENTUCKY REGIONAL WEATHER ROUNDUP
NATIONAL WEATHER SERVICE LOUISVILLE KY
800 AM EDT SUN JUL 23 2017

NOTE "FAIR" INDICATES FEW OR NO CLOUDS BELOW 12,000 FEET
WITH NO SIGNIFICANT WEATHER AND/OR OBSTRUCTIONS TO VISIBILITY.

KYZ001>023-026-027-061>063-070>075-231300-
WESTERN AND SOUTH CENTRAL KENTUCKY

CITY           SKY/WX    TMP DP  RH WIND       PRES   REMARKS
PADUCAH        LGT RAIN  75  67  76 N9G21     29.90R
HENDERSON      TSTM      72  70  94 N7G17     29.94R
OWENSBORO      TSTM      73  70  88 VRB6      29.92R VSB 1
HOPKINSVILLE   SUNNY     77  74  91 SW10      29.89R
BOWLING GREEN  CLOUDY    79  75  87 SE5       29.91R
GLASGOW        CLOUDY    76  67  72 CALM      29.91S
$$

KYZ024-025-028>034-038-045-046-053-231300-
NORTH CENTRAL KENTUCKY

CITY           SKY/WX    TMP DP  RH WIND       PRES   REMARKS
LOUISVILLE/SDF TSTM      73  69  87 W8        29.87R
LOUISVILLE/LOU TSTM      73  69  87 SW14G22   29.84F FOG
FORT KNOX      TSTM      70  68  94 N10       29.88S FOG
$$

KYZ035>037-039>044-047>052-055>060-089>105-231300-
NORTHEAST KENTUCKY

CITY           SKY/WX    TMP DP  RH WIND       PRES   REMARKS
LEXINGTON      LGT RAIN  71  68  90 S10       29.87F
COVINGTON      CLOUDY    72  71  97 SW9       29.84S
FRANKFORT      LGT RAIN  72  65  78 SW15      29.85F
$$

KYZ054-064>069-076>088-106>120-231300-
SOUTHEAST KENTUCKY

CITY           SKY/WX    TMP DP  RH WIND       PRES   REMARKS
JACKSON        CLOUDY    68  68 100 S3        29.93S FOG
LONDON         CLOUDY    75  67  76 CALM      29.94F
SOMERSET       CLOUDY    73  64  73 CALM      29.95S
MIDDLESBORO    CLOUDY    74  73  99 CALM      29.95F
MONTICELLO     PTSUNNY   76  75  97 N10       29.95R
$$




USA.gov is the U.S. government's official web portal to all federal, state and local government web resources and services.